PSSLC SBRP-SBGO

Flight info

Callsign PSSLC
Flight time 1h 6m
Altitude 28000
Route IVROP UZ25 CORVO
Aircraft BE20/L-SBGRY/S

Departure

Time 2026-04-29 17:04
Airport Leite Lopes Airport (SBRP)

Arrival

Time 2026-04-29 18:10
Airport Santa Genoveva International Airport (SBGO)
Time Latitude Longitude Altitude Speed Heading
2026-04-29 16:43 -21.13754 -47.77923 1801 ft 0 kts 185°
2026-04-29 16:57 -21.13755 -47.77923 1801 ft 3 kts 185°
2026-04-29 16:57 -21.13790 -47.77894 1801 ft 8 kts 123°
2026-04-29 16:57 -21.13764 -47.77851 1801 ft 10 kts 40°
2026-04-29 16:57 -21.13700 -47.77790 1800 ft 12 kts 49°
2026-04-29 16:58 -21.13690 -47.77715 1800 ft 9 kts 107°
2026-04-29 16:58 -21.13693 -47.77672 1801 ft 1 kts 100°
2026-04-29 16:58 -21.13697 -47.77659 1801 ft 7 kts 109°
2026-04-29 16:58 -21.13710 -47.77595 1801 ft 9 kts 75°
2026-04-29 16:59 -21.13681 -47.77531 1800 ft 11 kts 71°
2026-04-29 16:59 -21.13703 -47.77492 1801 ft 6 kts 168°
2026-04-29 16:59 -21.13759 -47.77476 1801 ft 11 kts 163°
2026-04-29 16:59 -21.13869 -47.77440 1801 ft 19 kts 163°
2026-04-29 17:00 -21.13997 -47.77403 1801 ft 19 kts 169°
2026-04-29 17:00 -21.14110 -47.77364 1801 ft 16 kts 161°
2026-04-29 17:00 -21.14215 -47.77329 1801 ft 16 kts 162°
2026-04-29 17:00 -21.14283 -47.77264 1800 ft 12 kts 104°
2026-04-29 17:01 -21.14291 -47.77229 1801 ft 0 kts 103°
2026-04-29 17:02 -21.14307 -47.77157 1800 ft 14 kts 100°
2026-04-29 17:02 -21.14282 -47.77132 1800 ft 0 kts 342°
2026-04-29 17:03 -21.14257 -47.77140 1799 ft 28 kts 342°
2026-04-29 17:03 -21.13782 -47.77294 1802 ft 107 kts 341°
2026-04-29 17:03 -21.12934 -47.77573 1938 ft 145 kts 341°
2026-04-29 17:04 -21.11922 -47.77893 2592 ft 150 kts 342°
2026-04-29 17:04 -21.10935 -47.78205 3340 ft 150 kts 342°
2026-04-29 17:04 -21.09918 -47.78526 4094 ft 153 kts 342°
2026-04-29 17:04 -21.08894 -47.78859 4866 ft 154 kts 340°
2026-04-29 17:05 -21.07865 -47.79201 5541 ft 155 kts 340°
2026-04-29 17:05 -21.06830 -47.79545 6190 ft 156 kts 340°
2026-04-29 17:05 -21.05785 -47.79892 6847 ft 158 kts 340°
2026-04-29 17:05 -21.04724 -47.80247 7526 ft 162 kts 340°
2026-04-29 17:06 -21.03644 -47.80600 8210 ft 163 kts 340°
2026-04-29 17:06 -21.02547 -47.80962 8860 ft 166 kts 340°
2026-04-29 17:06 -21.01434 -47.81331 9528 ft 169 kts 340°
2026-04-29 17:06 -21.00310 -47.81702 10212 ft 170 kts 340°
2026-04-29 17:07 -20.99312 -47.82025 10761 ft 172 kts 339°
2026-04-29 17:07 -20.98160 -47.82415 11369 ft 174 kts 339°
2026-04-29 17:07 -20.96995 -47.82803 11987 ft 177 kts 340°
2026-04-29 17:07 -20.95810 -47.83187 12603 ft 179 kts 340°
2026-04-29 17:08 -20.94606 -47.83584 13231 ft 182 kts 340°
2026-04-29 17:08 -20.93388 -47.83988 13841 ft 184 kts 340°
2026-04-29 17:08 -20.92160 -47.84393 14407 ft 185 kts 340°
2026-04-29 17:08 -20.90922 -47.84801 14970 ft 187 kts 340°
2026-04-29 17:09 -20.89678 -47.85215 15547 ft 188 kts 340°
2026-04-29 17:09 -20.88423 -47.85628 16111 ft 189 kts 340°
2026-04-29 17:09 -20.87161 -47.86043 16656 ft 190 kts 340°
2026-04-29 17:09 -20.85888 -47.86462 17208 ft 192 kts 340°
2026-04-29 17:10 -20.84605 -47.86885 17755 ft 193 kts 340°
2026-04-29 17:10 -20.83319 -47.87310 18290 ft 194 kts 339°
2026-04-29 17:10 -20.82027 -47.87736 18749 ft 195 kts 339°
2026-04-29 17:10 -20.80731 -47.88163 19214 ft 195 kts 339°
2026-04-29 17:11 -20.79435 -47.88590 19663 ft 195 kts 339°
2026-04-29 17:11 -20.78135 -47.89019 20110 ft 196 kts 339°
2026-04-29 17:11 -20.76833 -47.89448 20570 ft 196 kts 339°
2026-04-29 17:11 -20.75530 -47.89878 21014 ft 197 kts 339°
2026-04-29 17:12 -20.74219 -47.90309 21449 ft 198 kts 339°
2026-04-29 17:12 -20.72900 -47.90742 21906 ft 198 kts 339°
2026-04-29 17:12 -20.71579 -47.91177 22416 ft 199 kts 339°
2026-04-29 17:12 -20.70704 -47.91465 22759 ft 199 kts 339°
2026-04-29 17:13 -20.68926 -47.92051 23391 ft 201 kts 339°
2026-04-29 17:13 -20.67588 -47.92490 23805 ft 202 kts 338°
2026-04-29 17:13 -20.66242 -47.92933 24177 ft 203 kts 338°
2026-04-29 17:13 -20.64887 -47.93380 24558 ft 204 kts 338°
2026-04-29 17:14 -20.63524 -47.93828 24901 ft 207 kts 338°
2026-04-29 17:14 -20.62083 -47.94305 24927 ft 225 kts 339°
2026-04-29 17:14 -20.60556 -47.94806 24943 ft 240 kts 339°
2026-04-29 17:14 -20.58915 -47.95343 24943 ft 252 kts 339°
2026-04-29 17:15 -20.57186 -47.95910 24942 ft 261 kts 339°
2026-04-29 17:15 -20.55424 -47.96487 24939 ft 268 kts 339°
2026-04-29 17:15 -20.53622 -47.97080 24942 ft 274 kts 340°
2026-04-29 17:15 -20.51813 -47.97674 24943 ft 278 kts 340°
2026-04-29 17:16 -20.49956 -47.98281 24940 ft 281 kts 340°
2026-04-29 17:16 -20.48079 -47.98898 24937 ft 283 kts 340°
2026-04-29 17:16 -20.46187 -47.99518 24935 ft 285 kts 340°
2026-04-29 17:16 -20.44284 -48.00141 24937 ft 287 kts 340°
2026-04-29 17:17 -20.42376 -48.00768 24937 ft 288 kts 340°
2026-04-29 17:17 -20.40458 -48.01397 24938 ft 289 kts 340°
2026-04-29 17:17 -20.38532 -48.02028 24937 ft 290 kts 340°
2026-04-29 17:17 -20.36604 -48.02658 24935 ft 290 kts 340°
2026-04-29 17:18 -20.34670 -48.03291 24936 ft 291 kts 340°
2026-04-29 17:18 -20.32737 -48.03925 24932 ft 291 kts 340°
2026-04-29 17:18 -20.30795 -48.04561 24931 ft 292 kts 340°
2026-04-29 17:18 -20.28853 -48.05197 24931 ft 292 kts 340°
2026-04-29 17:19 -20.26909 -48.05833 24928 ft 293 kts 340°
2026-04-29 17:19 -20.24962 -48.06469 24926 ft 293 kts 340°
2026-04-29 17:19 -20.23015 -48.07106 24926 ft 293 kts 340°
2026-04-29 17:19 -20.21067 -48.07743 24925 ft 293 kts 340°
2026-04-29 17:20 -20.19120 -48.08379 24925 ft 293 kts 340°
2026-04-29 17:20 -20.17168 -48.09017 24926 ft 293 kts 340°
2026-04-29 17:20 -20.15219 -48.09653 24923 ft 293 kts 340°
2026-04-29 17:20 -20.13268 -48.10291 24924 ft 293 kts 340°
2026-04-29 17:21 -20.11319 -48.10927 24923 ft 293 kts 340°
2026-04-29 17:21 -20.09368 -48.11564 24926 ft 293 kts 340°
2026-04-29 17:21 -20.07415 -48.12201 24932 ft 293 kts 340°
2026-04-29 17:21 -20.05465 -48.12838 24940 ft 293 kts 340°
2026-04-29 17:22 -20.03512 -48.13475 24945 ft 294 kts 340°
2026-04-29 17:22 -20.01559 -48.14112 24949 ft 294 kts 340°
2026-04-29 17:22 -19.99605 -48.14748 24954 ft 294 kts 340°
2026-04-29 17:22 -19.97652 -48.15385 24959 ft 294 kts 340°
2026-04-29 17:23 -19.95696 -48.16023 24964 ft 294 kts 340°
2026-04-29 17:23 -19.93738 -48.16659 24972 ft 294 kts 340°
2026-04-29 17:23 -19.91781 -48.17298 24973 ft 294 kts 340°
2026-04-29 17:23 -19.89824 -48.17935 24976 ft 294 kts 341°
2026-04-29 17:24 -19.87844 -48.18502 24979 ft 295 kts 344°
2026-04-29 17:24 -19.85839 -48.18983 24980 ft 295 kts 345°
2026-04-29 17:24 -19.83841 -48.19486 24983 ft 295 kts 343°
2026-04-29 17:24 -19.81851 -48.20021 24982 ft 295 kts 343°
2026-04-29 17:25 -19.79858 -48.20551 24982 ft 295 kts 343°
2026-04-29 17:25 -19.77860 -48.21070 24977 ft 296 kts 344°
2026-04-29 17:25 -19.75863 -48.21590 24979 ft 296 kts 344°
2026-04-29 17:25 -19.73862 -48.22115 24975 ft 296 kts 344°
2026-04-29 17:26 -19.71865 -48.22639 24975 ft 296 kts 344°
2026-04-29 17:26 -19.69864 -48.23161 24967 ft 296 kts 344°
2026-04-29 17:26 -19.67861 -48.23685 24959 ft 296 kts 344°
2026-04-29 17:26 -19.65859 -48.24209 24957 ft 296 kts 344°
2026-04-29 17:27 -19.63881 -48.24726 24951 ft 297 kts 344°
2026-04-29 17:27 -19.61877 -48.25250 24948 ft 297 kts 344°
2026-04-29 17:27 -19.59873 -48.25774 24941 ft 297 kts 344°
2026-04-29 17:27 -19.57869 -48.26297 24933 ft 297 kts 343°
2026-04-29 17:28 -19.55864 -48.26821 24932 ft 297 kts 344°
2026-04-29 17:28 -19.53860 -48.27344 24927 ft 297 kts 344°
2026-04-29 17:28 -19.51852 -48.27868 24931 ft 297 kts 344°
2026-04-29 17:28 -19.49844 -48.28392 24927 ft 297 kts 344°
2026-04-29 17:29 -19.47832 -48.28917 24926 ft 297 kts 344°
2026-04-29 17:29 -19.45824 -48.29440 24929 ft 297 kts 344°
2026-04-29 17:29 -19.43813 -48.29965 24930 ft 297 kts 344°
2026-04-29 17:29 -19.42457 -48.30318 24933 ft 298 kts 344°
2026-04-29 17:30 -19.39793 -48.31013 24930 ft 298 kts 344°
2026-04-29 17:30 -19.37781 -48.31538 24925 ft 298 kts 344°
2026-04-29 17:30 -19.36422 -48.31893 24928 ft 297 kts 344°
2026-04-29 17:30 -19.34413 -48.32415 24930 ft 297 kts 344°
2026-04-29 17:31 -19.32429 -48.32932 24927 ft 298 kts 345°
2026-04-29 17:31 -19.30419 -48.33454 24930 ft 298 kts 344°
2026-04-29 17:31 -19.28404 -48.33978 24928 ft 298 kts 344°
2026-04-29 17:31 -19.26390 -48.34503 24928 ft 298 kts 344°
2026-04-29 17:32 -19.24371 -48.35027 24929 ft 298 kts 344°
2026-04-29 17:32 -19.22353 -48.35552 24926 ft 298 kts 345°
2026-04-29 17:32 -19.20340 -48.36075 24940 ft 298 kts 344°
2026-04-29 17:32 -19.18324 -48.36603 24945 ft 298 kts 345°
2026-04-29 17:33 -19.16308 -48.37125 24958 ft 298 kts 345°
2026-04-29 17:33 -19.14291 -48.37647 24961 ft 299 kts 345°
2026-04-29 17:33 -19.12271 -48.38173 24972 ft 299 kts 344°
2026-04-29 17:33 -19.10252 -48.38698 24976 ft 299 kts 345°
2026-04-29 17:34 -19.08233 -48.39221 24982 ft 299 kts 345°
2026-04-29 17:34 -19.06214 -48.39745 24990 ft 299 kts 345°
2026-04-29 17:34 -19.04193 -48.40270 24996 ft 299 kts 345°
2026-04-29 17:34 -19.02171 -48.40794 24999 ft 299 kts 345°
2026-04-29 17:35 -18.98812 -48.41665 25006 ft 299 kts 345°
2026-04-29 17:35 -18.96107 -48.42366 25011 ft 299 kts 345°
2026-04-29 17:35 -18.94111 -48.42884 25009 ft 299 kts 345°
2026-04-29 17:36 -18.92089 -48.43407 25011 ft 299 kts 345°
2026-04-29 17:36 -18.90064 -48.43932 25010 ft 300 kts 345°
2026-04-29 17:36 -18.88038 -48.44457 25005 ft 300 kts 345°
2026-04-29 17:36 -18.86012 -48.44981 25004 ft 300 kts 345°
2026-04-29 17:37 -18.84115 -48.45473 25000 ft 300 kts 345°
2026-04-29 17:37 -18.82046 -48.46007 24996 ft 300 kts 345°
2026-04-29 17:37 -18.80048 -48.46523 24990 ft 299 kts 345°
2026-04-29 17:37 -18.78026 -48.47047 24980 ft 299 kts 345°
2026-04-29 17:38 -18.76003 -48.47571 24973 ft 299 kts 345°
2026-04-29 17:38 -18.73980 -48.48095 24970 ft 300 kts 345°
2026-04-29 17:38 -18.71952 -48.48617 24960 ft 300 kts 345°
2026-04-29 17:38 -18.69928 -48.49140 24950 ft 300 kts 345°
2026-04-29 17:39 -18.67903 -48.49664 24939 ft 299 kts 345°
2026-04-29 17:39 -18.65880 -48.50186 24931 ft 300 kts 345°
2026-04-29 17:39 -18.63854 -48.50710 24920 ft 300 kts 345°
2026-04-29 17:39 -18.61827 -48.51233 24922 ft 300 kts 345°
2026-04-29 17:40 -18.59798 -48.51756 24919 ft 300 kts 345°
2026-04-29 17:40 -18.57771 -48.52278 24920 ft 300 kts 345°
2026-04-29 17:40 -18.55743 -48.52803 24920 ft 300 kts 345°
2026-04-29 17:40 -18.53710 -48.53327 24916 ft 301 kts 345°
2026-04-29 17:41 -18.51678 -48.53850 24916 ft 301 kts 345°
2026-04-29 17:41 -18.49646 -48.54374 24916 ft 301 kts 345°
2026-04-29 17:41 -18.47612 -48.54898 24913 ft 301 kts 345°
2026-04-29 17:41 -18.45576 -48.55423 24912 ft 301 kts 345°
2026-04-29 17:42 -18.43545 -48.55945 24914 ft 301 kts 345°
2026-04-29 17:42 -18.41514 -48.56469 24909 ft 301 kts 345°
2026-04-29 17:42 -18.39482 -48.56992 24911 ft 301 kts 345°
2026-04-29 17:42 -18.37448 -48.57516 24909 ft 301 kts 345°
2026-04-29 17:43 -18.35413 -48.58040 24910 ft 301 kts 345°
2026-04-29 17:43 -18.33403 -48.58557 24911 ft 301 kts 345°
2026-04-29 17:43 -18.31372 -48.59078 24907 ft 301 kts 345°
2026-04-29 17:43 -18.29339 -48.59600 24906 ft 301 kts 346°
2026-04-29 17:44 -18.27308 -48.60122 24907 ft 300 kts 345°
2026-04-29 17:44 -18.25280 -48.60645 24905 ft 300 kts 345°
2026-04-29 17:44 -18.23247 -48.61167 24905 ft 300 kts 346°
2026-04-29 17:44 -18.21218 -48.61688 24901 ft 300 kts 346°
2026-04-29 17:45 -18.19188 -48.62210 24901 ft 300 kts 346°
2026-04-29 17:45 -18.17158 -48.62730 24903 ft 300 kts 346°
2026-04-29 17:45 -18.15125 -48.63253 24901 ft 300 kts 346°
2026-04-29 17:45 -18.13095 -48.63774 24902 ft 301 kts 346°
2026-04-29 17:46 -18.11061 -48.64296 24900 ft 301 kts 346°
2026-04-29 17:46 -18.09030 -48.64816 24903 ft 301 kts 346°
2026-04-29 17:46 -18.07000 -48.65336 24905 ft 300 kts 346°
2026-04-29 17:46 -18.04968 -48.65858 24905 ft 300 kts 346°
2026-04-29 17:47 -18.02937 -48.66379 24903 ft 301 kts 346°
2026-04-29 17:47 -18.01592 -48.66723 24904 ft 301 kts 346°
2026-04-29 17:47 -18.00636 -48.66968 24900 ft 301 kts 346°
2026-04-29 17:48 -17.98915 -48.67409 24903 ft 301 kts 346°
2026-04-29 17:48 -17.96910 -48.67922 24903 ft 300 kts 346°
2026-04-29 17:48 -17.94851 -48.68450 24903 ft 301 kts 346°
2026-04-29 17:48 -17.92819 -48.68970 24904 ft 301 kts 346°
2026-04-29 17:49 -17.90786 -48.69490 24900 ft 301 kts 346°
2026-04-29 17:49 -17.88752 -48.70011 24903 ft 301 kts 346°
2026-04-29 17:49 -17.86718 -48.70531 24901 ft 301 kts 346°
2026-04-29 17:49 -17.84685 -48.71052 24901 ft 301 kts 346°
2026-04-29 17:50 -17.82651 -48.71572 24904 ft 301 kts 346°
2026-04-29 17:50 -17.80618 -48.72091 24899 ft 301 kts 346°
2026-04-29 17:50 -17.78600 -48.72606 24832 ft 295 kts 346°
2026-04-29 17:50 -17.76601 -48.73117 24477 ft 296 kts 346°
2026-04-29 17:51 -17.74625 -48.73623 24134 ft 297 kts 346°
2026-04-29 17:51 -17.72612 -48.74138 23786 ft 298 kts 346°
2026-04-29 17:51 -17.70603 -48.74651 23458 ft 297 kts 346°
2026-04-29 17:51 -17.68600 -48.75160 23096 ft 295 kts 346°
2026-04-29 17:52 -17.66607 -48.75670 22733 ft 294 kts 346°
2026-04-29 17:52 -17.65264 -48.76013 22494 ft 294 kts 346°
2026-04-29 17:52 -17.62639 -48.76683 22029 ft 293 kts 346°
2026-04-29 17:52 -17.60659 -48.77187 21680 ft 292 kts 346°
2026-04-29 17:53 -17.58690 -48.77688 21337 ft 291 kts 346°
2026-04-29 17:53 -17.56724 -48.78191 21003 ft 290 kts 346°
2026-04-29 17:53 -17.54763 -48.78693 20663 ft 290 kts 346°
2026-04-29 17:53 -17.52806 -48.79190 20334 ft 290 kts 347°
2026-04-29 17:54 -17.50848 -48.79688 20010 ft 289 kts 347°
2026-04-29 17:54 -17.48899 -48.80184 19680 ft 288 kts 346°
2026-04-29 17:54 -17.46954 -48.80680 19362 ft 288 kts 347°
2026-04-29 17:54 -17.45011 -48.81174 19041 ft 287 kts 347°
2026-04-29 17:55 -17.43072 -48.81669 18731 ft 286 kts 346°
2026-04-29 17:55 -17.41139 -48.82161 18416 ft 286 kts 347°
2026-04-29 17:55 -17.39210 -48.82649 18088 ft 285 kts 346°
2026-04-29 17:55 -17.37279 -48.83142 17732 ft 285 kts 346°
2026-04-29 17:56 -17.35352 -48.83633 17377 ft 285 kts 347°
2026-04-29 17:56 -17.33428 -48.84120 17025 ft 284 kts 347°
2026-04-29 17:56 -17.31506 -48.84610 16684 ft 284 kts 347°
2026-04-29 17:56 -17.29586 -48.85099 16339 ft 284 kts 347°
2026-04-29 17:57 -17.27666 -48.85586 16000 ft 284 kts 347°
2026-04-29 17:57 -17.25745 -48.86073 15664 ft 284 kts 347°
2026-04-29 17:57 -17.23824 -48.86560 15330 ft 284 kts 347°
2026-04-29 17:57 -17.22554 -48.86884 15110 ft 283 kts 347°
2026-04-29 17:58 -17.19995 -48.87536 14676 ft 283 kts 347°
2026-04-29 17:58 -17.18078 -48.88019 14354 ft 283 kts 347°
2026-04-29 17:58 -17.16165 -48.88506 14039 ft 283 kts 347°
2026-04-29 17:58 -17.14281 -48.88985 13725 ft 282 kts 347°
2026-04-29 17:59 -17.12347 -48.89475 13366 ft 283 kts 347°
2026-04-29 17:59 -17.10435 -48.89959 13004 ft 282 kts 347°
2026-04-29 17:59 -17.08526 -48.90442 12653 ft 282 kts 346°
2026-04-29 17:59 -17.06680 -48.90914 12317 ft 273 kts 347°
2026-04-29 18:00 -17.04858 -48.91375 11980 ft 267 kts 347°
2026-04-29 18:00 -17.03069 -48.91826 11649 ft 263 kts 346°
2026-04-29 18:00 -17.01305 -48.92276 11320 ft 260 kts 346°
2026-04-29 18:00 -16.99552 -48.92720 10994 ft 259 kts 346°
2026-04-29 18:01 -16.97802 -48.93162 10678 ft 259 kts 346°
2026-04-29 18:01 -16.96052 -48.93606 10360 ft 259 kts 346°
2026-04-29 18:01 -16.94298 -48.94052 10044 ft 260 kts 345°
2026-04-29 18:01 -16.92540 -48.94494 9723 ft 261 kts 346°
2026-04-29 18:02 -16.90777 -48.94941 9364 ft 261 kts 346°
2026-04-29 18:02 -16.89013 -48.95390 9018 ft 261 kts 346°
2026-04-29 18:02 -16.87265 -48.95829 8811 ft 256 kts 347°
2026-04-29 18:02 -16.85556 -48.96259 8633 ft 250 kts 346°
2026-04-29 18:03 -16.83875 -48.96687 8438 ft 247 kts 347°
2026-04-29 18:03 -16.82214 -48.97108 8245 ft 245 kts 347°
2026-04-29 18:03 -16.80564 -48.97527 8059 ft 243 kts 347°
2026-04-29 18:03 -16.78908 -48.97945 7864 ft 237 kts 347°
2026-04-29 18:04 -16.77812 -48.98228 7739 ft 231 kts 346°
2026-04-29 18:04 -16.76387 -48.98922 7558 ft 225 kts 322°
2026-04-29 18:04 -16.75404 -49.00158 7349 ft 220 kts 299°
2026-04-29 18:04 -16.74739 -49.01478 7122 ft 192 kts 298°
2026-04-29 18:05 -16.74115 -49.02647 6861 ft 178 kts 301°
2026-04-29 18:05 -16.73505 -49.03738 6558 ft 171 kts 301°
2026-04-29 18:05 -16.72918 -49.04792 6258 ft 165 kts 302°
2026-04-29 18:05 -16.72349 -49.05813 5944 ft 162 kts 302°
2026-04-29 18:06 -16.71775 -49.06822 5627 ft 162 kts 303°
2026-04-29 18:06 -16.71204 -49.07840 5301 ft 165 kts 301°
2026-04-29 18:06 -16.70610 -49.08912 4905 ft 170 kts 302°
2026-04-29 18:06 -16.70016 -49.09959 4507 ft 169 kts 302°
2026-04-29 18:07 -16.69425 -49.10996 4119 ft 164 kts 303°
2026-04-29 18:07 -16.68875 -49.11976 4097 ft 158 kts 302°
2026-04-29 18:07 -16.68300 -49.13011 4070 ft 171 kts 301°
2026-04-29 18:07 -16.67687 -49.14092 3936 ft 169 kts 302°
2026-04-29 18:08 -16.67120 -49.15120 3716 ft 158 kts 302°
2026-04-29 18:08 -16.66577 -49.16075 3492 ft 148 kts 303°
2026-04-29 18:08 -16.66069 -49.16984 3252 ft 143 kts 300°
2026-04-29 18:08 -16.65622 -49.17792 3166 ft 117 kts 300°
2026-04-29 18:09 -16.65229 -49.18529 3092 ft 117 kts 300°
2026-04-29 18:09 -16.64858 -49.19216 3015 ft 122 kts 303°
2026-04-29 18:09 -16.64381 -49.20040 2838 ft 127 kts 303°
2026-04-29 18:09 -16.63933 -49.20789 2566 ft 117 kts 302°
2026-04-29 18:10 -16.63552 -49.21479 2457 ft 100 kts 301°
2026-04-29 18:10 -16.63334 -49.21864 2446 ft 45 kts 301°
2026-04-29 18:10 -16.63167 -49.22159 2446 ft 32 kts 294°
2026-04-29 18:10 -16.63194 -49.22221 2443 ft 12 kts 211°
2026-04-29 18:11 -16.63209 -49.22230 2447 ft 0 kts 212°
2026-04-29 18:12 -16.63261 -49.22262 2437 ft 17 kts 210°
2026-04-29 18:12 -16.63340 -49.22312 2436 ft 6 kts 199°
2026-04-29 18:12 -16.63378 -49.22281 2438 ft 17 kts 121°
2026-04-29 18:12 -16.63449 -49.22157 2436 ft 19 kts 120°
2026-04-29 18:13 -16.63489 -49.22084 2437 ft 16 kts 120°
2026-04-29 18:13 -16.63539 -49.21997 2436 ft 12 kts 121°
2026-04-29 18:13 -16.63577 -49.21930 2442 ft 9 kts 120°
2026-04-29 18:13 -16.63616 -49.21860 2450 ft 11 kts 122°
2026-04-29 18:14 -16.63649 -49.21800 2446 ft 19 kts 120°
2026-04-29 18:14 -16.63705 -49.21760 2448 ft 7 kts 236°
2026-04-29 18:14 -16.63699 -49.21800 2449 ft 10 kts 300°
2026-04-29 18:14 -16.63677 -49.21839 2458 ft 0 kts 300°